Weather History for Martha's Vineyard, MA

Change the Weather History Date:

Sunday, January 20, 2013

  Actual Average Record
Temperature  
Mean Temperature 42 °F -  
Max Temperature 52 °F 36 °F 55 °F (1973)
Min Temperature 30 °F 19 °F 0 °F (1977)
Degree Days  
Heating Degree Days 22    
Moisture  
Dew Point 35 °F    
Average Humidity 67    
Maximum Humidity 93    
Minimum Humidity 40    
Precipitation  
Precipitation 0.00 in - - ()
Sea Level Pressure  
Sea Level Pressure 29.80 in    
Wind  
Wind Speed 16 mph (WSW)    
Max Wind Speed 22 mph    
Max Gust Speed 38 mph    
Visibility 10 miles    
Events      
Averages and records for this station are not official NWS values.
T = Trace of Precipitation, MM = Missing Value Source: NWS Daily Summary

Daily Weather History Graph

Daily Weather History Graph

Search for Another Location

Airport:

Trip Planner

Search our weather history database for the weather conditions in past years. The results will help you decide how hot, cold, wet, or windy it might be!

Date:

Astronomy

Jan. 20, 2013 Rise Set
Actual Time 7:03 AM EST 4:44 PM EST
Civil Twilight 6:33 AM EST 5:14 PM EST
Nautical Twilight 5:59 AM EST 5:48 PM EST
Astronomical Twilight 5:26 AM EST 6:20 PM EST
Moon 11:43 AM EST (1/20) 1:32 AM EST (1/20)
Length of Visible Light 10h 40m
Length of Day
9h 40m
Waxing Gibbous, 66% of the Moon is Illuminated
Jan 20
Waxing Gibbous
Jan 26
Full
Feb 3
Last Quarter
Feb 10
New
Feb 17
First Quarter

Hourly Weather History & Observations

Time (EST) Temp. Windchill Dew Point Humidity Pressure Visibility Wind Dir Wind Speed Gust Speed Precip Events Conditions
12:33 AM 46.4 °F 39.5 °F 44.6 °F 93% 29.95 in 9.0 mi SW 17.3 mph 27.6 mph N/A   Mostly Cloudy
12:53 AM 46.9 °F - 45.0 °F 93% 29.94 in 9.0 mi SSW 18.4 mph 26.5 mph N/A   Overcast
1:45 AM 48.2 °F - 44.6 °F 87% 29.94 in 10.0 mi SW 15.0 mph 25.3 mph N/A   Scattered Clouds
1:53 AM 48.0 °F - 45.0 °F 89% 29.93 in 10.0 mi SW 17.3 mph 21.9 mph N/A   Partly Cloudy
2:53 AM 46.9 °F - 43.0 °F 86% 29.90 in 10.0 mi SW 13.8 mph 21.9 mph N/A   Clear
3:53 AM 46.9 °F - 42.1 °F 83% 29.86 in 10.0 mi SW 15.0 mph 25.3 mph N/A   Clear
4:53 AM 46.9 °F - 42.1 °F 83% 29.83 in 10.0 mi SW 13.8 mph 24.2 mph N/A   Clear
5:53 AM 46.9 °F - 41.0 °F 80% 29.81 in 10.0 mi SW 15.0 mph 24.2 mph N/A   Clear
6:53 AM 46.0 °F 39.0 °F 41.0 °F 83% 29.77 in 10.0 mi SW 17.3 mph 26.5 mph N/A   Clear
7:53 AM 46.9 °F - 39.9 °F 77% 29.75 in 10.0 mi SW 16.1 mph 25.3 mph N/A   Clear
8:53 AM 48.9 °F - 39.9 °F 71% 29.75 in 10.0 mi SW 17.3 mph 26.5 mph N/A   Clear
9:53 AM 51.1 °F - 39.9 °F 66% 29.74 in 10.0 mi SW 19.6 mph 27.6 mph N/A   Clear
10:53 AM 51.1 °F - 41.0 °F 68% 29.71 in 10.0 mi WSW 20.7 mph 28.8 mph N/A   Clear
11:53 AM 52.0 °F - 41.0 °F 66% 29.67 in 10.0 mi SW 17.3 mph 28.8 mph N/A   Clear
12:53 PM 51.1 °F - 39.0 °F 63% 29.65 in 10.0 mi SW 21.9 mph 38.0 mph N/A   Clear
1:53 PM 51.1 °F - 36.0 °F 56% 29.63 in 10.0 mi WSW 16.1 mph 28.8 mph N/A   Clear
2:53 PM 52.0 °F - 32.0 °F 47% 29.65 in 10.0 mi WSW 21.9 mph 35.7 mph N/A   Clear
3:53 PM 48.9 °F - 34.0 °F 56% 29.67 in 10.0 mi WSW 16.1 mph 27.6 mph N/A   Clear
4:53 PM 48.0 °F - 32.0 °F 54% 29.70 in 10.0 mi West 10.4 mph 24.2 mph N/A   Clear
5:53 PM 48.0 °F - 28.9 °F 48% 29.73 in 10.0 mi West 16.1 mph 25.3 mph N/A   Clear
6:53 PM 45.0 °F 39.7 °F 30.0 °F 56% 29.76 in 10.0 mi WNW 10.4 mph - N/A   Clear
7:53 PM 41.0 °F 33.9 °F 18.0 °F 40% 29.80 in 10.0 mi NW 12.7 mph - N/A   Clear
8:53 PM 37.9 °F 28.5 °F 19.0 °F 47% 29.84 in 10.0 mi NW 17.3 mph 25.3 mph N/A   Clear
9:53 PM 35.1 °F 25.5 °F 16.0 °F 46% 29.88 in 10.0 mi WNW 15.0 mph 28.8 mph N/A   Clear
10:53 PM 33.1 °F 24.4 °F 14.0 °F 46% 29.91 in 10.0 mi WNW 11.5 mph 20.7 mph N/A   Clear
11:53 PM 30.9 °F 22.2 °F 12.9 °F 47% 29.93 in 10.0 mi NW 10.4 mph - N/A   Clear